This is the latest recevied weather packets stored in our database for station/object KE8ZLU. If no packets are shown the sender has not sent any weather packets the latest 10 day(s).
| Time | Temp. | Humidity | Pressure | Rain* | Wind** | Luminosity | Snow |
|---|---|---|---|---|---|---|---|
| 1777954456 | 15.56° C | 84% | 1001.3 hPa | 0 mm | - | 0 W/m² | - |
| 1777954153 | 15.56° C | 84% | 1001.1 hPa | 0 mm | - | 0 W/m² | - |
| 1777953851 | 15.56° C | 84% | 1001.3 hPa | 0 mm | - | 0 W/m² | - |
| 1777953547 | 15.56° C | 84% | 1001.3 hPa | 0 mm | - | 0 W/m² | - |
| 1777953243 | 15.56° C | 84% | 1001.3 hPa | 0 mm | - | 0 W/m² | - |
| 1777952941 | 15.56° C | 84% | 1001.3 hPa | 0 mm | - | 0 W/m² | - |
| 1777952637 | 15.56° C | 84% | 1001.5 hPa | 0 mm | - | 0 W/m² | - |
| 1777952334 | 16.67° C | 82% | 1001.7 hPa | 1.27 mm | - | 0 W/m² | - |
| 1777952031 | 16.67° C | 82% | 1001.5 hPa | 0 mm | - | 0 W/m² | - |
| 1777951729 | 16.67° C | 80% | 1001.7 hPa | 1.78 mm | - | 0 W/m² | - |
| 1777951425 | 17.22° C | 81% | 1001.9 hPa | 1.78 mm | - | 0 W/m² | - |
| 1777951122 | 17.78° C | 76% | 1002.1 hPa | 0 mm | - | 0 W/m² | - |
| 1777950819 | 18.33° C | 75% | 1002 hPa | 0 mm | - | 0 W/m² | - |
| 1777950516 | 18.89° C | 71% | 1001.9 hPa | 0 mm | - | 0 W/m² | - |
| 1777950212 | 19.44° C | 67% | 1001.7 hPa | 0 mm | - | 0 W/m² | - |
| 1777949908 | 20° C | 66% | 1001.4 hPa | 0 mm | - | 0 W/m² | - |
| 1777949606 | 20° C | 65% | 1001.6 hPa | 0 mm | - | 0 W/m² | - |
| 1777949304 | 20° C | 66% | 1001.6 hPa | 0 mm | - | 0 W/m² | - |
| 1777949001 | 19.44° C | 65% | 1001.5 hPa | 0 mm | - | 0 W/m² | - |
| 1777948698 | 19.44° C | 67% | 1001.3 hPa | 0 mm | - | 0 W/m² | - |
| 1777948395 | 19.44° C | 66% | 1001 hPa | 0 mm | - | 0 W/m² | - |
| 1777948093 | 19.44° C | 66% | 1001 hPa | 0 mm | - | 0 W/m² | - |
| 1777947789 | 19.44° C | 66% | 1001 hPa | 0 mm | - | 0 W/m² | - |
| 1777947487 | 18.89° C | 67% | 1001.2 hPa | 0 mm | - | 0 W/m² | - |
| 1777947183 | 19.44° C | 67% | 1001.1 hPa | 0 mm | - | 0 W/m² | - |
* Rain latest hour (hover to see other rain measurements)
** Current wind speed in m/s (hover to see current wind gust speed)